Minot, ND

4:37 AM CDT on April 29, 2017 (GMT -0500)
Minot International

Weather History for KMOT - November, 2013

Change the Weather History Date:

Sunday, November 17, 2013

  Actual Average Record
Temperature  
Mean Temperature 27 °F 27 °F  
Max Temperature 32 °F 36 °F 68 °F (2001)
Min Temperature 22 °F 19 °F -10 °F (1959)
Degree Days  
Heating Degree Days 38 38  
Month to date heating degree days 546 561  
Since 1 July heating degree days 1439 1521  
Moisture  
Dew Point 23 °F    
Average Humidity 87    
Maximum Humidity 92    
Minimum Humidity 81    
Precipitation  
Precipitation 0.01 in 0.03 in 0.50 in (1906)
Month to date precipitation 0.07 0.49  
Year to date precipitation 24.73 16.55  
Sea Level Pressure  
Sea Level Pressure 29.67 in    
Wind  
Wind Speed 9 mph (North)    
Max Wind Speed 20 mph    
Max Gust Speed 23 mph    
Visibility 8 miles    
Events Snow    
T = Trace of Precipitation, MM = Missing Value Source: NWS Daily Summary

Daily Weather History Graph

Daily Weather History Graph

Search for Another Location

Airport or City:

Trip Planner

Search our weather history database for the weather conditions in past years. The results will help you decide how hot, cold, wet, or windy it might be!

Date:

Astronomy

Nov. 17, 2013 Rise Set
Actual Time 7:55 AM CST 5:04 PM CST
Civil Twilight 7:21 AM CST 5:38 PM CST
Nautical Twilight 6:43 AM CST 6:16 PM CST
Astronomical Twilight 6:06 AM CST 6:53 PM CST
Moon 5:22 PM CST (11/17) 7:50 AM CST (11/17)
Length of Visible Light 10h 16m
Length of Day
9h 08m
Full, 100% of the Moon is Illuminated
Nov 17
Full
Nov 25
Last Quarter
Dec 2
New
Dec 9
First Quarter
Dec 17
Full

Hourly Weather History & Observations

Time (CST) Temp. Windchill Dew Point Humidity Pressure Visibility Wind Dir Wind Speed Gust Speed Precip Events Conditions
12:07 AM 32.0 °F 24.2 °F 30.0 °F 92% 29.41 in 6.0 mi NE 9.2 mph - 0.00 in Snow Light Snow
12:34 AM 30.9 °F 23.5 °F 28.9 °F 92% 29.41 in 5.0 mi NE 8.1 mph - 0.00 in Snow Light Snow
12:41 AM 30.9 °F 24.3 °F 30.0 °F 96% 29.41 in 3.0 mi NE 6.9 mph - 0.00 in Snow Light Snow
12:54 AM 30.9 °F 22.2 °F 28.9 °F 92% 29.47 in 1.5 mi NNE 10.4 mph - 0.00 in Snow Light Snow
1:09 AM 30.9 °F 24.3 °F 28.9 °F 92% 29.42 in 2.0 mi NNE 6.9 mph - 0.01 in Snow Light Snow
1:25 AM 30.9 °F 24.3 °F 28.9 °F 92% 29.42 in 3.0 mi NNE 6.9 mph - 0.01 in Snow Light Snow
1:54 AM 30.0 °F 21.7 °F 28.0 °F 92% 29.48 in 9.0 mi NNE 9.2 mph - 0.01 in   Overcast
2:08 AM 30.0 °F 22.4 °F 28.0 °F 92% 29.43 in 5.0 mi NNE 8.1 mph - 0.00 in Snow Light Snow
2:43 AM 30.0 °F 23.2 °F 28.0 °F 92% 29.44 in 9.0 mi North 6.9 mph - 0.00 in Snow Light Snow
2:54 AM 28.9 °F 19.8 °F 27.0 °F 92% 29.50 in 5.0 mi North 10.4 mph - 0.00 in Snow Light Snow
3:06 AM 28.9 °F 20.4 °F 27.0 °F 92% 29.46 in 4.0 mi North 9.2 mph - 0.00 in Snow Light Snow
3:22 AM 28.0 °F 19.3 °F 26.1 °F 92% 29.46 in 2.5 mi North 9.2 mph - 0.00 in Snow Light Snow
3:35 AM 28.0 °F 19.3 °F 26.1 °F 92% 29.47 in 1.8 mi North 9.2 mph - 0.00 in Snow Light Snow
3:47 AM 28.0 °F 18.1 °F 26.1 °F 92% 29.47 in 1.8 mi North 11.5 mph - 0.00 in Snow Light Snow
3:54 AM 28.0 °F 19.3 °F 26.1 °F 92% 29.52 in 2.5 mi North 9.2 mph - 0.00 in Snow Light Snow
4:13 AM 27.0 °F 17.3 °F 25.0 °F 92% 29.47 in 3.0 mi North 10.4 mph - 0.00 in Snow Light Snow
4:26 AM 27.0 °F 18.0 °F 25.0 °F 92% 29.48 in 5.0 mi North 9.2 mph - 0.00 in Snow Light Snow
4:54 AM 27.0 °F 17.3 °F 25.0 °F 92% 29.55 in 8.0 mi North 10.4 mph - 0.00 in Snow Light Snow
5:38 AM 27.0 °F 16.7 °F 25.0 °F 92% 29.51 in 9.0 mi North 11.5 mph - 0.00 in Snow Light Snow
5:54 AM 27.0 °F 18.0 °F 25.0 °F 92% 29.57 in 7.0 mi North 9.2 mph - 0.00 in Snow Light Snow
6:15 AM 27.0 °F 18.0 °F 24.1 °F 89% 29.52 in 4.0 mi North 9.2 mph - 0.00 in Snow Light Snow
6:27 AM 27.0 °F 16.1 °F 24.1 °F 89% 29.53 in 8.0 mi North 12.7 mph - 0.00 in Snow Light Snow
6:54 AM 26.1 °F 14.5 °F 24.1 °F 92% 29.61 in 10.0 mi North 13.8 mph - 0.00 in   Overcast
7:29 AM 26.1 °F 15.0 °F 23.0 °F 88% 29.56 in 6.0 mi NNW 12.7 mph - 0.00 in Snow Light Snow
7:39 AM 26.1 °F 14.0 °F 23.0 °F 88% 29.56 in 6.0 mi North 15.0 mph - 0.00 in Snow Light Snow
7:54 AM 25.0 °F 13.1 °F 21.9 °F 88% 29.64 in 10.0 mi North 13.8 mph - 0.00 in   Overcast
8:41 AM 25.0 °F 13.1 °F 21.9 °F 88% 29.60 in 10.0 mi North 13.8 mph - N/A   Overcast
8:51 AM 24.8 °F 12.4 °F 21.2 °F 86% 29.61 in 10.0 mi NNW 15.0 mph - N/A   Overcast
8:54 AM 25.0 °F 11.7 °F 21.9 °F 88% 29.68 in 10.0 mi NNW 17.3 mph - N/A   Overcast
9:43 AM 24.1 °F 11.5 °F 21.0 °F 88% 29.64 in 10.0 mi North 15.0 mph - N/A   Overcast
9:54 AM 25.0 °F 12.6 °F 21.0 °F 85% 29.71 in 10.0 mi North 15.0 mph - N/A   Overcast
10:22 AM 25.0 °F 13.1 °F 21.0 °F 85% 29.66 in 10.0 mi North 13.8 mph - N/A   Overcast
10:52 AM 24.8 °F 12.4 °F 21.2 °F 86% 29.68 in 10.0 mi NNW 15.0 mph 20.7 mph N/A   Overcast
10:54 AM 25.0 °F 12.6 °F 21.9 °F 88% 29.75 in 10.0 mi North 15.0 mph - N/A   Overcast
11:25 AM 25.0 °F 12.6 °F 21.0 °F 85% 29.69 in 10.0 mi North 15.0 mph - N/A   Overcast
11:54 AM 25.0 °F 14.8 °F 21.0 °F 85% 29.78 in 10.0 mi NNW 10.4 mph 18.4 mph N/A   Overcast
12:54 PM 25.0 °F 14.8 °F 19.9 °F 81% 29.81 in 10.0 mi NNW 10.4 mph - N/A   Overcast
1:54 PM 25.0 °F 15.5 °F 19.9 °F 81% 29.84 in 10.0 mi NW 9.2 mph - N/A   Overcast
2:54 PM 25.0 °F 14.8 °F 19.9 °F 81% 29.86 in 10.0 mi NW 10.4 mph - N/A   Overcast
3:28 PM 25.0 °F 14.8 °F 19.0 °F 78% 29.80 in 10.0 mi NW 10.4 mph - N/A   Overcast
3:41 PM 25.0 °F 15.5 °F 19.9 °F 81% 29.81 in 10.0 mi NNW 9.2 mph - N/A   Overcast
3:54 PM 25.0 °F 14.8 °F 19.9 °F 81% 29.89 in 10.0 mi NW 10.4 mph - N/A   Overcast
4:01 PM 25.0 °F 17.1 °F 19.0 °F 78% 29.82 in 10.0 mi NW 6.9 mph - N/A   Overcast
4:54 PM 24.1 °F 17.0 °F 19.0 °F 81% 29.92 in 10.0 mi NNW 5.8 mph - N/A   Overcast
5:11 PM 24.1 °F 18.2 °F 19.0 °F 81% 29.85 in 10.0 mi NNW 4.6 mph - N/A   Overcast
5:54 PM 23.0 °F 14.7 °F 19.0 °F 85% 29.95 in 10.0 mi NW 6.9 mph - N/A   Overcast
6:54 PM 23.0 °F 15.8 °F 18.0 °F 81% 29.97 in 10.0 mi NNW 5.8 mph - N/A   Overcast
7:54 PM 23.0 °F 15.8 °F 18.0 °F 81% 30.00 in 10.0 mi NNW 5.8 mph - N/A   Overcast
8:54 PM 21.9 °F 14.5 °F 18.0 °F 85% 30.01 in 10.0 mi North 5.8 mph - N/A   Overcast
9:54 PM 21.9 °F - 18.0 °F 85% 30.01 in 10.0 mi Calm Calm - N/A   Overcast
10:54 PM 21.9 °F - 18.0 °F 85% 30.02 in 10.0 mi Calm Calm - N/A   Overcast
11:07 PM 21.9 °F - 17.1 °F 82% 29.94 in 10.0 mi Calm Calm - N/A   Overcast
11:18 PM 21.9 °F - 17.1 °F 82% 29.94 in 10.0 mi Calm Calm - N/A   Overcast
11:54 PM 21.9 °F - 18.0 °F 85% 30.03 in 10.0 mi Calm Calm - N/A   Overcast